Regional Weather Roundup
Issued by NWS Albany, NY

Home | Current Version | Previous Version | Graphics & Text | Print | Product List | Glossary On
Versions: 1 2 3 4 5 6 7 8 9 10 11 12 13 14 15 16 17 18 19 20 21 22 23 24 25 26 27 28 29 30 31 32 33 34 35 36 37 38 39 40 41 42 43 44 45 46 47 48 49 50
567
ASUS41 KALY 211010
RWRALY

NEW YORK STATE HOURLY WEATHER ROUNDUP
NATIONAL WEATHER SERVICE ALBANY NY
500 AM EST TUE FEB 21 2017

NOTE: "FAIR" INDICATES FEW OR NO CLOUDS BELOW 12,000 FEET WITH NO
SIGNIFICANT WEATHER AND/OR NO OBSTRUCTIONS TO VISIBILITY.

NYZ032-033-038>043-046>054-057>066-NYZ062>081-082-084-211100-
EAST


CITY           SKY/WX    TMP DP  RH WIND       PRES   REMARKS
ALBANY         CLOUDY    18  12  77 CALM      30.38S
GLENS FALLS    CLOUDY    16  11  80 CALM      30.37F
POUGHKEEPSIE   CLOUDY    21  16  81 CALM      30.40R
NEWBURGH       CLEAR     25  18  74 CALM      30.39R
MONTGOMERY     CLOUDY    22  17  81 CALM      30.38R
WHITE PLAINS   CLOUDY    27  12  53 NW3       30.37R
ISLIP          CLEAR     25  19  78 NW3       30.38R
NEW YORK CITY  PTCLDY    37  15  40 NE5       30.39R WCI  33
CENTRAL PARK   CLEAR     36  11  35 E9        30.40R WCI  29
$$

NYZ005>009-017-018-044>046-055-056-211100-
CENTRAL


CITY           SKY/WX    TMP DP  RH WIND       PRES   REMARKS
FULTON         CLOUDY    28  17  63 SE9       30.24F WCI  19
SYRACUSE       CLOUDY    24  17  74 E12       30.25F WCI  13
ROME           PTCLDY    21  15  78 E6        30.34S WCI  13
ELMIRA         CLOUDY    26  19  74 CALM      30.25F
BINGHAMTON     CLOUDY    23  14  68 SE7       30.24F WCI  15
MONTICELLO     CLOUDY    19  16  86 CALM      30.33R
$$

NYZ026>034-041>043-087-211100-
NORTH


CITY           SKY/WX    TMP DP  RH WIND       PRES   REMARKS
WATERTOWN      CLOUDY    23  19  85 E6        30.25F WCI  16
FORT DRUM      NOT AVBL
OGDENSBURG     FAIR      16  15  93 CALM      30.30F
MASSENA        CLOUDY    14  11  87 NE3       30.32F
SARANAC LAKE   CLOUDY     6   3  87 CALM      30.23F
PLATTSBURGH    CLOUDY    17  13  84 CALM      30.35F
$$

NYZ001>004-010>016-019>021-085-211100-
WEST


CITY           SKY/WX    TMP DP  RH WIND       PRES   REMARKS
NIAGARA FALLS  CLOUDY    32  20  61 SE6       30.11F WCI  26
BUFFALO        CLOUDY    37  21  52 SE9       30.11F WCI  30
DUNKIRK        PTCLDY    36  27  69 NE9       30.09F WCI  29
JAMESTOWN      CLOUDY    39  19  45 S12       30.11F WCI  32
WELLSVILLE     CLOUDY    35  14  42 S9        30.17S WCI  28
ROCHESTER      CLOUDY    32  19  58 SE5       30.17F WCI  27
PENN YAN       CLOUDY    28  18  66 S5        30.20F WCI  23
$$

             KEY
       WCI = WIND CHILL INDEX
       VSB = VISIBILITY
       HX  = HEAT INDEX
$$




USA.gov is the U.S. government's official web portal to all federal, state and local government web resources and services.